Time,TemperatureF,DewpointF,PressureIn,WindDirection,WindDirectionDegrees,WindSpeedMPH,WindSpeedGustMPH,Humidity,HourlyPrecipIn,Conditions,Clouds,dailyrainin,SolarRadiationWatts/m^2,SoftwareType,DateUTC
2013-01-08 00:03:00,61.0,59.0,-100.00,ENE,67,3.0,-999.0,93,0.00,,,-99.99,0.300000,,2013-01-08 05:03:00,
2013-01-08 00:12:00,61.0,59.0,-100.00,NE,55,3.0,-999.0,93,0.00,,,-99.99,0.400000,,2013-01-08 05:12:00,
2013-01-08 00:22:00,61.0,59.0,-100.00,NE,55,3.0,-999.0,93,0.00,,,-99.99,0.400000,,2013-01-08 05:22:00,
2013-01-08 00:33:00,61.0,60.0,-100.00,ENE,62,3.0,-999.0,93,0.00,,,-99.99,0.300000,,2013-01-08 05:33:00,
2013-01-08 00:43:00,61.0,60.0,-100.00,NE,55,2.0,-999.0,93,0.00,,,-99.99,0.300000,,2013-01-08 05:43:00,
2013-01-08 00:53:00,61.0,60.0,-100.00,NE,55,2.0,-999.0,93,0.00,,,-99.99,0.300000,,2013-01-08 05:53:00,
2013-01-08 01:02:00,61.0,60.0,-100.00,NE,49,3.0,-999.0,93,0.00,,,-99.99,0.300000,,2013-01-08 06:02:00,
2013-01-08 01:12:00,61.0,60.0,-100.00,NNE,31,2.0,-999.0,93,0.00,,,-99.99,0.300000,,2013-01-08 06:12:00,
2013-01-08 01:22:00,61.0,60.0,-100.00,NNE,31,2.0,-999.0,93,0.00,,,-99.99,0.300000,,2013-01-08 06:22:00,
2013-01-08 01:33:00,61.0,60.0,-100.00,NNE,22,2.0,-999.0,94,0.00,,,-99.99,0.400000,,2013-01-08 06:33:00,
2013-01-08 01:42:00,61.0,60.0,-100.00,NNE,25,2.0,-999.0,94,0.00,,,-99.99,0.400000,,2013-01-08 06:42:00,
2013-01-08 01:53:00,61.0,60.0,-100.00,NNE,25,2.0,-999.0,94,0.00,,,-99.99,0.400000,,2013-01-08 06:53:00,
2013-01-08 02:02:00,61.0,60.0,-100.00,NNE,31,2.0,-999.0,94,0.00,,,-99.99,0.400000,,2013-01-08 07:02:00,
2013-01-08 02:12:00,61.0,60.0,-100.00,NNE,19,3.0,-999.0,94,0.00,,,-99.99,0.400000,,2013-01-08 07:12:00,
2013-01-08 02:22:00,61.0,60.0,-100.00,NNE,19,3.0,-999.0,94,0.00,,,-99.99,0.400000,,2013-01-08 07:22:00,
2013-01-08 02:32:00,61.0,60.0,-100.00,NNE,23,2.0,-999.0,94,0.00,,,-99.99,0.400000,,2013-01-08 07:32:00,
2013-01-08 02:42:00,61.0,60.0,-100.00,NE,41,2.0,-999.0,94,0.00,,,-99.99,0.400000,,2013-01-08 07:42:00,
2013-01-08 02:52:00,61.0,60.0,-100.00,NE,41,2.0,-999.0,94,0.00,,,-99.99,0.400000,,2013-01-08 07:52:00,
2013-01-08 03:02:00,61.0,60.0,-100.00,NNE,33,2.0,-999.0,94,0.00,,,-99.99,0.400000,,2013-01-08 08:02:00,
2013-01-08 03:12:00,61.0,60.0,-100.00,NE,42,2.0,-999.0,94,0.00,,,-99.99,0.400000,,2013-01-08 08:12:00,
2013-01-08 03:22:00,61.0,60.0,-100.00,NE,42,2.0,-999.0,94,0.00,,,-99.99,0.400000,,2013-01-08 08:22:00,
2013-01-08 03:32:00,61.0,60.0,-100.00,ENE,57,3.0,-999.0,94,0.00,,,-99.99,0.400000,,2013-01-08 08:32:00,
2013-01-08 03:42:00,62.0,60.0,-100.00,ENE,63,4.0,-999.0,94,0.00,,,-99.99,0.400000,,2013-01-08 08:42:00,
2013-01-08 03:53:00,62.0,60.0,-100.00,ENE,63,4.0,-999.0,94,0.00,,,-99.99,0.400000,,2013-01-08 08:53:00,
2013-01-08 04:02:00,62.0,60.0,-100.00,ENE,63,3.0,-999.0,94,0.00,,,-99.99,0.400000,,2013-01-08 09:02:00,
2013-01-08 04:12:00,62.0,60.0,-100.00,NE,51,3.0,-999.0,94,0.00,,,-99.99,0.400000,,2013-01-08 09:12:00,
2013-01-08 04:22:00,62.0,60.0,-100.00,NE,51,3.0,-999.0,94,0.00,,,-99.99,0.400000,,2013-01-08 09:22:00,
2013-01-08 04:32:00,62.0,60.0,-100.00,NE,37,2.0,-999.0,94,0.00,,,-99.99,0.400000,,2013-01-08 09:32:00,
2013-01-08 04:42:00,62.0,60.0,-100.00,NE,34,2.0,-999.0,94,0.00,,,-99.99,0.400000,,2013-01-08 09:42:00,
2013-01-08 04:52:00,62.0,60.0,-100.00,NE,34,2.0,-999.0,94,0.00,,,-99.99,0.400000,,2013-01-08 09:52:00,
2013-01-08 05:02:00,62.0,60.0,-100.00,ENE,65,2.0,-999.0,94,0.00,,,-99.99,0.400000,,2013-01-08 10:02:00,
2013-01-08 05:12:00,62.0,60.0,-100.00,ENE,74,3.0,-999.0,94,0.00,,,-99.99,0.400000,,2013-01-08 10:12:00,
2013-01-08 05:22:00,62.0,60.0,-100.00,ENE,74,3.0,-999.0,94,0.00,,,-99.99,0.400000,,2013-01-08 10:22:00,
2013-01-08 05:32:00,61.0,60.0,-100.00,East,79,2.0,-999.0,94,0.00,,,-99.99,0.400000,,2013-01-08 10:32:00,
2013-01-08 05:42:00,61.0,60.0,-100.00,ENE,77,2.0,-999.0,94,0.00,,,-99.99,0.400000,,2013-01-08 10:42:00,
2013-01-08 05:52:00,61.0,60.0,-100.00,ENE,77,2.0,-999.0,94,0.00,,,-99.99,0.400000,,2013-01-08 10:52:00,
2013-01-08 06:02:00,61.0,60.0,-100.00,NE,51,3.0,-999.0,94,0.00,,,-99.99,0.400000,,2013-01-08 11:02:00,
2013-01-08 06:12:00,62.0,60.0,-100.00,NE,48,3.0,-999.0,94,0.00,,,-99.99,0.400000,,2013-01-08 11:12:00,
2013-01-08 06:22:00,62.0,60.0,-100.00,NE,48,3.0,-999.0,94,0.00,,,-99.99,0.400000,,2013-01-08 11:22:00,
2013-01-08 06:33:00,62.0,60.0,-100.00,NNE,21,2.0,-999.0,94,0.00,,,-99.99,0.400000,,2013-01-08 11:33:00,
2013-01-08 06:42:00,61.0,60.0,-100.00,NE,50,2.0,-999.0,94,0.00,,,-99.99,0.400000,,2013-01-08 11:42:00,
2013-01-08 06:53:00,61.0,60.0,-100.00,NE,50,2.0,-999.0,94,0.00,,,-99.99,0.400000,,2013-01-08 11:53:00,
2013-01-08 07:03:00,61.0,60.0,-100.00,NE,44,2.0,-999.0,94,0.00,,,-99.99,0.400000,,2013-01-08 12:03:00,
2013-01-08 07:12:00,61.0,60.0,-100.00,NNE,22,2.0,-999.0,94,0.00,,,-99.99,0.400000,,2013-01-08 12:12:00,
2013-01-08 07:22:00,61.0,60.0,-100.00,NNE,22,2.0,-999.0,94,0.00,,,-99.99,0.400000,,2013-01-08 12:22:00,
2013-01-08 07:33:00,61.0,60.0,-100.00,ENE,60,2.0,-999.0,94,0.00,,,-99.99,0.800000,,2013-01-08 12:33:00,
2013-01-08 07:42:00,61.0,60.0,-100.00,NNE,19,2.0,-999.0,94,0.00,,,-99.99,3.600000,,2013-01-08 12:42:00,
2013-01-08 07:53:00,61.0,60.0,-100.00,NNE,19,2.0,-999.0,94,0.00,,,-99.99,3.600000,,2013-01-08 12:53:00,
2013-01-08 08:03:00,61.0,60.0,-100.00,NNE,21,2.0,-999.0,94,0.00,,,-99.99,10.700000,,2013-01-08 13:03:00,
2013-01-08 08:13:00,62.0,60.0,-100.00,North,11,2.0,-999.0,94,0.00,,,-99.99,45.099998,,2013-01-08 13:13:00,
2013-01-08 08:22:00,62.0,60.0,-100.00,North,11,2.0,-999.0,94,0.00,,,-99.99,45.099998,,2013-01-08 13:22:00,
2013-01-08 08:33:00,62.0,61.0,-100.00,NE,41,3.0,-999.0,94,0.00,,,-99.99,67.000000,,2013-01-08 13:33:00,
2013-01-08 08:43:00,63.0,61.0,-100.00,NE,47,3.0,-999.0,94,0.00,,,-99.99,79.800003,,2013-01-08 13:43:00,
2013-01-08 08:53:00,63.0,61.0,-100.00,NE,47,3.0,-999.0,94,0.00,,,-99.99,79.800003,,2013-01-08 13:53:00,
2013-01-08 09:02:00,63.0,62.0,-100.00,ENE,59,4.0,-999.0,94,0.00,,,-99.99,106.000000,,2013-01-08 14:02:00,
2013-01-08 09:13:00,65.0,63.0,-100.00,ENE,60,3.0,-999.0,94,0.00,,,-99.99,100.099998,,2013-01-08 14:13:00,
2013-01-08 09:23:00,65.0,63.0,-100.00,ENE,60,3.0,-999.0,94,0.00,,,-99.99,100.099998,,2013-01-08 14:23:00,
2013-01-08 09:33:00,66.0,64.0,-100.00,ENE,71,3.0,-999.0,94,0.00,,,-99.99,119.000000,,2013-01-08 14:33:00,
2013-01-08 09:43:00,66.0,64.0,-100.00,ENE,71,3.0,-999.0,94,0.00,,,-99.99,119.000000,,2013-01-08 14:43:00,
2013-01-08 09:53:00,67.0,66.0,-100.00,East,81,3.0,-999.0,94,0.00,,,-99.99,322.100006,,2013-01-08 14:53:00,
2013-01-08 10:03:00,69.0,67.0,-100.00,East,90,3.0,-999.0,93,0.00,,,-99.99,365.600006,,2013-01-08 15:03:00,
2013-01-08 10:12:00,71.0,69.0,-100.00,East,95,2.0,-999.0,92,0.00,,,-99.99,401.299988,,2013-01-08 15:12:00,
2013-01-08 10:23:00,71.0,69.0,-100.00,East,95,2.0,-999.0,92,0.00,,,-99.99,401.299988,,2013-01-08 15:23:00,
2013-01-08 10:33:00,73.0,70.0,-100.00,ESE,102,2.0,-999.0,89,0.00,,,-99.99,436.700012,,2013-01-08 15:33:00,
2013-01-08 10:43:00,74.0,70.0,-100.00,East,81,3.0,-999.0,86,0.00,,,-99.99,473.200012,,2013-01-08 15:43:00,
2013-01-08 10:53:00,74.0,70.0,-100.00,East,81,3.0,-999.0,86,0.00,,,-99.99,473.200012,,2013-01-08 15:53:00,
2013-01-08 11:03:00,76.0,70.0,-100.00,East,87,3.0,-999.0,82,0.00,,,-99.99,446.399994,,2013-01-08 16:03:00,
2013-01-08 11:12:00,77.0,70.0,-100.00,East,96,4.0,-999.0,79,0.00,,,-99.99,574.700012,,2013-01-08 16:12:00,
2013-01-08 11:23:00,77.0,70.0,-100.00,East,96,4.0,-999.0,79,0.00,,,-99.99,574.700012,,2013-01-08 16:23:00,
2013-01-08 11:34:00,78.0,70.0,-100.00,SE,125,3.0,-999.0,76,0.00,,,-99.99,528.299988,,2013-01-08 16:34:00,
2013-01-08 11:43:00,79.0,70.0,-100.00,ESE,107,3.0,-999.0,74,0.00,,,-99.99,435.200012,,2013-01-08 16:43:00,
2013-01-08 11:53:00,79.0,70.0,-100.00,ESE,107,3.0,-999.0,74,0.00,,,-99.99,435.200012,,2013-01-08 16:53:00,
2013-01-08 12:03:00,79.0,70.0,-100.00,ESE,107,2.0,-999.0,74,0.00,,,-99.99,498.799988,,2013-01-08 17:03:00,
2013-01-08 12:13:00,81.0,71.0,-100.00,ESE,108,3.0,-999.0,71,0.00,,,-99.99,674.099976,,2013-01-08 17:13:00,
2013-01-08 12:23:00,81.0,71.0,-100.00,ESE,108,3.0,-999.0,71,0.00,,,-99.99,674.099976,,2013-01-08 17:23:00,
2013-01-08 12:33:00,82.0,70.0,-100.00,ESE,109,3.0,-999.0,68,0.00,,,-99.99,739.000000,,2013-01-08 17:33:00,
2013-01-08 12:43:00,81.0,70.0,-100.00,ESE,108,4.0,-999.0,67,0.00,,,-99.99,584.200012,,2013-01-08 17:43:00,
2013-01-08 12:54:00,81.0,70.0,-100.00,ESE,108,4.0,-999.0,67,0.00,,,-99.99,584.200012,,2013-01-08 17:54:00,
2013-01-08 13:03:00,82.0,69.0,-100.00,East,98,3.0,-999.0,66,0.00,,,-99.99,547.000000,,2013-01-08 18:03:00,
2013-01-08 13:13:00,80.0,69.0,-100.00,East,96,3.0,-999.0,68,0.00,,,-99.99,397.799988,,2013-01-08 18:13:00,
2013-01-08 13:23:00,80.0,69.0,-100.00,East,96,3.0,-999.0,68,0.00,,,-99.99,397.799988,,2013-01-08 18:23:00,
2013-01-08 13:33:00,81.0,69.0,-100.00,East,92,3.0,-999.0,66,0.00,,,-99.99,489.500000,,2013-01-08 18:33:00,
2013-01-08 13:43:00,81.0,69.0,-100.00,ESE,110,3.0,-999.0,66,0.00,,,-99.99,405.600006,,2013-01-08 18:43:00,
2013-01-08 13:53:00,81.0,69.0,-100.00,ESE,110,3.0,-999.0,66,0.00,,,-99.99,405.600006,,2013-01-08 18:53:00,
2013-01-08 14:03:00,80.0,68.0,-100.00,ESE,106,2.0,-999.0,67,0.00,,,-99.99,260.700012,,2013-01-08 19:03:00,
2013-01-08 14:12:00,82.0,69.0,-100.00,ESE,105,3.0,-999.0,64,0.00,,,-99.99,526.500000,,2013-01-08 19:12:00,
2013-01-08 14:23:00,82.0,69.0,-100.00,ESE,105,3.0,-999.0,64,0.00,,,-99.99,526.500000,,2013-01-08 19:23:00,
2013-01-08 14:32:00,84.0,69.0,-100.00,ESE,105,3.0,-999.0,60,0.00,,,-99.99,592.500000,,2013-01-08 19:32:00,
2013-01-08 14:43:00,84.0,68.0,-100.00,ESE,120,4.0,-999.0,59,0.00,,,-99.99,482.000000,,2013-01-08 19:43:00,
2013-01-08 14:53:00,84.0,68.0,-100.00,ESE,120,4.0,-999.0,59,0.00,,,-99.99,482.000000,,2013-01-08 19:53:00,
2013-01-08 15:03:00,84.0,68.0,-100.00,East,90,3.0,-999.0,59,0.00,,,-99.99,527.500000,,2013-01-08 20:03:00,
2013-01-08 15:12:00,84.0,68.0,-100.00,ESE,102,4.0,-999.0,58,0.00,,,-99.99,514.000000,,2013-01-08 20:12:00,
2013-01-08 15:23:00,84.0,68.0,-100.00,ESE,102,4.0,-999.0,58,0.00,,,-99.99,514.000000,,2013-01-08 20:23:00,
2013-01-08 15:33:00,85.0,68.0,-100.00,ESE,121,3.0,-999.0,56,0.00,,,-99.99,459.299988,,2013-01-08 20:33:00,
2013-01-08 15:43:00,85.0,68.0,-100.00,ESE,103,3.0,-999.0,56,0.00,,,-99.99,422.799988,,2013-01-08 20:43:00,
2013-01-08 15:54:00,85.0,68.0,-100.00,ESE,103,3.0,-999.0,56,0.00,,,-99.99,422.799988,,2013-01-08 20:54:00,
2013-01-08 16:03:00,85.0,68.0,-100.00,ESE,120,2.0,-999.0,56,0.00,,,-99.99,330.200012,,2013-01-08 21:03:00,
2013-01-08 16:13:00,84.0,67.0,-100.00,ESE,115,3.0,-999.0,56,0.00,,,-99.99,255.600006,,2013-01-08 21:13:00,
2013-01-08 16:23:00,84.0,67.0,-100.00,ESE,115,3.0,-999.0,56,0.00,,,-99.99,255.600006,,2013-01-08 21:23:00,
2013-01-08 16:33:00,84.0,67.0,-100.00,ESE,113,3.0,-999.0,58,0.00,,,-99.99,276.799988,,2013-01-08 21:33:00,
2013-01-08 16:43:00,84.0,67.0,-100.00,ESE,109,2.0,-999.0,58,0.00,,,-99.99,232.100006,,2013-01-08 21:43:00,
2013-01-08 16:53:00,84.0,67.0,-100.00,ESE,109,2.0,-999.0,58,0.00,,,-99.99,232.100006,,2013-01-08 21:53:00,
2013-01-08 17:03:00,83.0,67.0,-100.00,ESE,106,2.0,-999.0,59,0.00,,,-99.99,104.400002,,2013-01-08 22:03:00,
2013-01-08 17:12:00,81.0,67.0,-100.00,East,100,2.0,-999.0,62,0.00,,,-99.99,83.300003,,2013-01-08 22:12:00,
2013-01-08 17:23:00,81.0,67.0,-100.00,East,100,2.0,-999.0,62,0.00,,,-99.99,83.300003,,2013-01-08 22:23:00,
2013-01-08 17:33:00,80.0,67.0,-100.00,ESE,113,2.0,-999.0,64,0.00,,,-99.99,39.700001,,2013-01-08 22:33:00,
2013-01-08 17:43:00,79.0,67.0,-100.00,ESE,104,2.0,-999.0,67,0.00,,,-99.99,21.299999,,2013-01-08 22:43:00,
2013-01-08 17:53:00,79.0,67.0,-100.00,ESE,104,2.0,-999.0,67,0.00,,,-99.99,21.299999,,2013-01-08 22:53:00,
2013-01-08 18:02:00,78.0,68.0,-100.00,ESE,102,1.0,-999.0,70,0.00,,,-99.99,10.800000,,2013-01-08 23:02:00,
2013-01-08 18:13:00,77.0,68.0,-100.00,ESE,103,1.0,-999.0,72,0.00,,,-99.99,2.700000,,2013-01-08 23:13:00,
2013-01-08 18:22:00,77.0,68.0,-100.00,ESE,103,1.0,-999.0,72,0.00,,,-99.99,2.700000,,2013-01-08 23:22:00,
2013-01-08 18:33:00,76.0,68.0,-100.00,East,101,1.0,-999.0,74,0.00,,,-99.99,0.500000,,2013-01-08 23:33:00,
2013-01-08 18:43:00,75.0,67.0,-100.00,East,101,1.0,-999.0,76,0.00,,,-99.99,0.200000,,2013-01-08 23:43:00,
2013-01-08 18:53:00,75.0,67.0,-100.00,East,101,1.0,-999.0,76,0.00,,,-99.99,0.200000,,2013-01-08 23:53:00,
2013-01-08 19:03:00,75.0,67.0,-100.00,East,101,1.0,-999.0,77,0.00,,,-99.99,0.200000,,2013-01-09 00:03:00,
2013-01-08 19:13:00,74.0,67.0,-100.00,ESE,102,1.0,-999.0,79,0.00,,,-99.99,0.200000,,2013-01-09 00:13:00,
2013-01-08 19:22:00,74.0,67.0,-100.00,ESE,102,1.0,-999.0,79,0.00,,,-99.99,0.200000,,2013-01-09 00:22:00,
2013-01-08 19:33:00,74.0,67.0,-100.00,ESE,102,1.0,-999.0,81,0.00,,,-99.99,0.200000,,2013-01-09 00:33:00,
2013-01-08 19:42:00,73.0,67.0,-100.00,East,98,1.0,-999.0,82,0.00,,,-99.99,0.200000,,2013-01-09 00:42:00,
2013-01-08 19:53:00,73.0,67.0,-100.00,East,98,1.0,-999.0,82,0.00,,,-99.99,0.200000,,2013-01-09 00:53:00,
2013-01-08 20:02:00,72.0,67.0,-100.00,ESE,111,1.0,-999.0,84,0.00,,,-99.99,0.200000,,2013-01-09 01:02:00,
2013-01-08 20:12:00,72.0,67.0,-100.00,ESE,107,1.0,-999.0,84,0.00,,,-99.99,0.200000,,2013-01-09 01:12:00,
2013-01-08 20:22:00,72.0,67.0,-100.00,ESE,107,1.0,-999.0,84,0.00,,,-99.99,0.200000,,2013-01-09 01:22:00,
2013-01-08 20:33:00,72.0,67.0,-100.00,East,99,2.0,-999.0,84,0.00,,,-99.99,0.200000,,2013-01-09 01:33:00,
2013-01-08 20:42:00,71.0,67.0,-100.00,East,98,1.0,-999.0,85,0.00,,,-99.99,0.200000,,2013-01-09 01:42:00,
2013-01-08 20:52:00,71.0,67.0,-100.00,East,98,1.0,-999.0,85,0.00,,,-99.99,0.200000,,2013-01-09 01:52:00,
2013-01-08 21:02:00,71.0,67.0,-100.00,East,98,2.0,-999.0,86,0.00,,,-99.99,0.200000,,2013-01-09 02:02:00,
2013-01-08 21:12:00,71.0,67.0,-100.00,ESE,105,1.0,-999.0,87,0.00,,,-99.99,0.200000,,2013-01-09 02:12:00,
2013-01-08 21:22:00,71.0,67.0,-100.00,ESE,105,1.0,-999.0,87,0.00,,,-99.99,0.200000,,2013-01-09 02:22:00,
2013-01-08 21:33:00,71.0,68.0,-100.00,ESE,106,2.0,-999.0,87,0.00,,,-99.99,0.200000,,2013-01-09 02:33:00,
2013-01-08 21:43:00,72.0,68.0,-100.00,East,93,2.0,-999.0,86,0.00,,,-99.99,0.200000,,2013-01-09 02:43:00,
2013-01-08 21:53:00,72.0,68.0,-100.00,East,93,2.0,-999.0,86,0.00,,,-99.99,0.200000,,2013-01-09 02:53:00,
2013-01-08 22:03:00,72.0,67.0,-100.00,ESE,103,2.0,-999.0,86,0.00,,,-99.99,0.200000,,2013-01-09 03:03:00,
2013-01-08 22:12:00,72.0,68.0,-100.00,ESE,103,2.0,-999.0,87,0.00,,,-99.99,0.200000,,2013-01-09 03:12:00,
2013-01-08 22:22:00,72.0,68.0,-100.00,ESE,103,2.0,-999.0,87,0.00,,,-99.99,0.200000,,2013-01-09 03:22:00,
2013-01-08 22:33:00,72.0,68.0,-100.00,East,99,2.0,-999.0,87,0.00,,,-99.99,0.200000,,2013-01-09 03:33:00,
2013-01-08 22:43:00,72.0,68.0,-100.00,East,96,2.0,-999.0,87,0.00,,,-99.99,0.200000,,2013-01-09 03:43:00,
2013-01-08 22:53:00,72.0,68.0,-100.00,East,96,2.0,-999.0,87,0.00,,,-99.99,0.200000,,2013-01-09 03:53:00,
2013-01-08 23:02:00,72.0,68.0,-100.00,East,100,2.0,-999.0,87,0.00,,,-99.99,0.200000,,2013-01-09 04:02:00,
2013-01-08 23:12:00,72.0,68.0,-100.00,ESE,102,2.0,-999.0,87,0.00,,,-99.99,0.200000,,2013-01-09 04:12:00,
2013-01-08 23:22:00,72.0,68.0,-100.00,ESE,102,2.0,-999.0,87,0.00,,,-99.99,0.200000,,2013-01-09 04:22:00,
2013-01-08 23:32:00,72.0,68.0,-100.00,ESE,105,2.0,-999.0,86,0.00,,,-99.99,0.300000,,2013-01-09 04:32:00,
2013-01-08 23:43:00,72.0,68.0,-100.00,ESE,109,2.0,-999.0,86,0.00,,,-99.99,0.200000,,2013-01-09 04:43:00,
2013-01-08 23:52:00,72.0,68.0,-100.00,ESE,109,2.0,-999.0,86,0.00,,,-99.99,0.200000,,2013-01-09 04:52:00,